St. Paul, MN

4:29 AM CDT on April 28, 2017 (GMT -0500)
Saint Paul Downtown-Holman

Weather History for KSTP - March, 2013

Change the Weather History Date:

Saturday, March 2, 2013

  Actual Average Record
Temperature  
Mean Temperature 18 °F -  
Max Temperature 28 °F 28 °F 39 °F (1998)
Min Temperature 9 °F 15 °F -13 °F (2014)
Degree Days  
Heating Degree Days 46    
Moisture  
Dew Point 8 °F    
Average Humidity 62    
Maximum Humidity 88    
Minimum Humidity 38    
Precipitation  
Precipitation 0.00 in - - ()
Sea Level Pressure  
Sea Level Pressure 30.32 in    
Wind  
Wind Speed 3 mph (NNW)    
Max Wind Speed 8 mph    
Max Gust Speed -    
Visibility 10 miles    
Events      
Averages and records for this station are not official NWS values.
T = Trace of Precipitation, MM = Missing Value Source: NWS Daily Summary

Daily Weather History Graph

Daily Weather History Graph

Search for Another Location

Airport or City:

Trip Planner

Search our weather history database for the weather conditions in past years. The results will help you decide how hot, cold, wet, or windy it might be!

Date:

Astronomy

Mar. 02, 2013 Rise Set
Actual Time 6:47 AM CST 6:01 PM CST
Civil Twilight 6:18 AM CST 6:30 PM CST
Nautical Twilight 5:44 AM CST 7:04 PM CST
Astronomical Twilight 5:10 AM CST 7:38 PM CST
Moon 11:58 PM CST (3/2) 9:00 AM CST (3/2)
Length of Visible Light 12h 12m
Length of Day
11h 13m
Waning Gibbous, 74% of the Moon is Illuminated
Mar 2
Waning Gibbous
Mar 4
Last Quarter
Mar 11
New
Mar 19
First Quarter
Mar 27
Full

Hourly Weather History & Observations

Time (CST) Temp. Windchill Dew Point Humidity Pressure Visibility Wind Dir Wind Speed Gust Speed Precip Events Conditions
12:53 AM 17.1 °F 10.0 °F 10.0 °F 74% 30.38 in 10.0 mi North 4.6 mph - N/A   Clear
1:53 AM 15.1 °F 9.4 °F 9.0 °F 77% 30.39 in 10.0 mi NNW 3.5 mph - N/A   Clear
2:53 AM 14.0 °F 6.5 °F 9.0 °F 80% 30.38 in 10.0 mi North 4.6 mph - N/A   Clear
3:53 AM 12.9 °F 3.8 °F 8.1 °F 81% 30.39 in 10.0 mi NW 5.8 mph - N/A   Clear
4:53 AM 10.9 °F 1.4 °F 7.0 °F 84% 30.40 in 10.0 mi NW 5.8 mph - N/A   Clear
5:53 AM 10.0 °F 3.6 °F 6.1 °F 84% 30.38 in 10.0 mi NE 3.5 mph - N/A   Clear
6:53 AM 9.0 °F 0.6 °F 6.1 °F 88% 30.40 in 10.0 mi NNW 4.6 mph - N/A   Clear
7:53 AM 10.0 °F 3.6 °F 6.1 °F 84% 30.40 in 10.0 mi WNW 3.5 mph - N/A   Clear
8:53 AM 12.9 °F 6.9 °F 8.1 °F 81% 30.40 in 10.0 mi West 3.5 mph - N/A   Clear
9:53 AM 17.1 °F - 10.9 °F 77% 30.38 in 10.0 mi Calm Calm - N/A   Clear
10:53 AM 23.0 °F 17.0 °F 10.0 °F 58% 30.36 in 10.0 mi SE 4.6 mph - N/A   Clear
11:53 AM 23.0 °F - 8.1 °F 53% 30.35 in 10.0 mi Calm Calm - N/A   Clear
12:53 PM 25.0 °F - 8.1 °F 49% 30.32 in 10.0 mi Calm Calm - N/A   Clear
1:53 PM 27.0 °F - 6.1 °F 41% 30.30 in 10.0 mi Calm Calm - N/A   Clear
2:53 PM 28.0 °F - 6.1 °F 39% 30.28 in 10.0 mi Calm Calm - N/A   Clear
3:53 PM 28.9 °F - 6.1 °F 38% 30.27 in 10.0 mi Calm Calm - N/A   Clear
4:53 PM 28.9 °F - 6.1 °F 38% 30.27 in 10.0 mi Calm Calm - N/A   Clear
5:53 PM 26.1 °F 17.6 °F 10.9 °F 53% 30.26 in 10.0 mi South 8.1 mph - N/A   Clear
6:53 PM 24.8 °F 19.1 °F 10.4 °F 54% 30.24 in 10.0 mi SSE 4.6 mph - N/A   Mostly Cloudy
7:53 PM 25.0 °F - 10.0 °F 53% 30.26 in 10.0 mi Calm Calm - N/A   Overcast
8:53 PM 25.0 °F - 9.0 °F 51% 30.25 in 10.0 mi Calm Calm - N/A   Overcast
9:53 PM 24.1 °F - 7.0 °F 48% 30.24 in 10.0 mi Calm Calm - N/A   Overcast
10:53 PM 23.0 °F 18.4 °F 9.0 °F 55% 30.23 in 10.0 mi SSE 3.5 mph - N/A   Overcast
11:53 PM 23.0 °F - 10.0 °F 58% 30.22 in 10.0 mi Calm Calm - N/A   Overcast